Regional Weather Roundup
Issued by NWS

Home | Current Version | Previous Version | Text Only | Print | Product List | Glossary Off
Versions: 1 2 3 4 5 6 7 8 9 10 11 12 13 14 15 16 17 18 19 20 21 22 23 24 25 26 27 28 29 30 31 32 33 34 35 36 37 38 39 40 41 42 43 44 45 46 47 48 49 50

000
ASUS43 KOAX 280902
RWRNE

WEATHER ROUNDUP FOR NEBRASKA
NATIONAL WEATHER SERVICE OMAHA NE
300 AM CST FRI NOV 28 2014

NOTES: SATELLITE DATA IS BEING USED TO AUGMENT CLOUD COVER ABOVE
       12000 FEET.
       "FAIR" INDICATES FEW OR NO CLOUDS BELOW 12,000 FEET WITH NO
       SIGNIFICANT WEATHER AND/OR OBSTRUCTIONS TO VISIBILITY.

  * THESE STATIONS DO NOT REPORT WEATHER SUCH AS RAIN...SNOW OR FOG.

NEZ001>004-019>022-054>056-281000-
NEBRASKA PANHANDLE

CITY           SKY/WX    TMP DP  RH WIND       PRES   REMARKS
SCOTTSBLUFF    CLEAR     32  25  75 E7        29.91F WCI  26
ALLIANCE       CLEAR     26  22  84 SW8       29.89F WCI  18
$$

NEZ057>060-069>072-079>082-281000-
SOUTHWEST NEBRASKA

CITY           SKY/WX    TMP DP  RH WIND       PRES   REMARKS
NORTH PLATTE   PTCLDY    22  19  89 W5        29.93S WCI  16
IMPERIAL       CLEAR     38  25  59 W12       29.96S WCI  30
LEXINGTON      CLEAR     23  19  83 W6        29.92F WCI  16
$$

NEZ005>010-023>029-035>040-094-281000-
NORTH CENTRAL NEBRASKA

CITY           SKY/WX    TMP DP  RH WIND       PRES   REMARKS
VALENTINE      CLEAR     33  28  81 W9        29.84F WCI  25
BROKEN BOW     CLEAR     37  24  59 W5        29.89F WCI  33
ORD            CLEAR     16  13  88 CALM      29.90R
$$

NEZ041-046>049-061>064-073>077-083>087-281000-
SOUTH CENTRAL NEBRASKA

CITY           SKY/WX    TMP DP  RH WIND       PRES   REMARKS
GRAND ISLAND   CLEAR     26  19  74 SW9       29.95R WCI  17
AURORA         CLEAR     28  19  70 S8        29.93F WCI  20
HASTINGS       CLEAR     27  18  69 SW8       29.93S WCI  19
KEARNEY *      CLEAR     27  19  74 CALM      29.93F
YORK           CLEAR     27  19  74 S10       29.95S WCI  17
$$

NEZ011>018-030>034-042>045-281000-
NORTHEAST NEBRASKA

CITY           SKY/WX    TMP DP  RH WIND       PRES   REMARKS
NORFOLK        PTCLDY    27  19  72 S7        29.92F WCI  19
BLAIR          CLEAR     28  22  78 S16       29.98F WCI  16
COLUMBUS *     PTCLDY    27  18  69 S6        29.96F WCI  20
TEKAMAH        CLEAR     25  19  78 S9        29.99F WCI  15
$$

NEZ050>053-065>068-078-088>093-281000-
SOUTHEAST NEBRASKA

CITY           SKY/WX    TMP DP  RH WIND       PRES   REMARKS
LINCOLN        CLEAR     26  18  71 S7        30.00F WCI  18
OMAHA EPPLEY   CLEAR     27  21  78 S12       30.03F WCI  17
FALLS CITY     CLEAR     28  22  78 SE7       30.06F WCI  21
PLATTSMOUTH    CLEAR     29  21  72 SE15G23   30.01F WCI  18
$$

NEZ044-045-051>053-067-281000-
OMAHA AREA

CITY           SKY/WX    TMP DP  RH WIND       PRES   REMARKS
OMAHA EPPLEY   CLEAR     27  21  78 S12       30.03F WCI  17
BLAIR          CLEAR     28  22  78 S16       29.98F WCI  16
OFFUTT AFB     CLEAR     24  20  85 SE7       30.02F WCI  16
PLATTSMOUTH    CLEAR     29  21  72 SE15G23   30.01F WCI  18
$$



USA.gov is the U.S. government's official web portal to all federal, state and local government web resources and services.